CW0343 Weather Reports


Display with metric or nautical units.
time (UTC)temp
F
wind
direction
speed
MPH
gust
MPH
rain 1hr
in
rain 24hr
in
rain mn
in
humidity
%
barometer
mb
20260506121304 68 161 2.0 6.0 0.00 0.00 0.00 81 1016.4
20260506120804 68 161 3.0 8.0 0.00 0.00 0.00 81 1016.5
20260506120304 68 164 5.0 9.0 0.00 0.00 0.00 81 1016.5
20260506115805 68 152 3.0 6.0 0.00 0.00 0.00 81 1016.5
20260506115307 68 146 3.0 10.0 0.00 0.00 0.00 81 1016.6
20260506114804 68 160 5.0 8.0 0.00 0.00 0.00 81 1016.5
20260506113806 68 131 3.0 7.0 0.00 0.00 0.00 81 1016.5
20260506113305 68 132 3.0 5.0 0.00 0.00 0.00 81 1016.5
20260506112805 68 132 2.0 5.0 0.00 0.00 0.00 81 1016.5
20260506111805 68 133 3.0 7.0 0.00 0.00 0.00 81 1016.6
20260506110805 68 139 2.0 7.0 0.00 0.00 0.00 81 1016.6
20260506110304 68 117 3.0 7.0 0.00 0.00 0.00 81 1016.6
20260506105804 68 123 3.0 8.0 0.00 0.00 0.00 81 1016.5
20260506105305 69 113 3.0 7.0 0.00 0.00 0.00 81 1016.4
20260506104806 69 105 1.0 6.0 0.00 0.00 0.00 81 1016.4
20260506104304 69 101 1.0 2.0 0.00 0.00 0.00 80 1016.3
20260506103804 69 101 1.0 2.0 0.00 0.00 0.00 80 1016.3
20260506103304 69 101 1.0 3.0 0.00 0.00 0.00 80 1016.3
20260506102305 69 101 2.0 3.0 0.00 0.00 0.00 80 1016.1
20260506100804 70 101 1.0 2.0 0.00 0.00 0.00 80 1016.0
20260506095804 70 101 1.0 3.0 0.00 0.00 0.00 80 1016.0
20260506094304 70 101 2.0 3.0 0.00 0.00 0.00 79 1015.6
20260506093805 71 101 1.0 3.0 0.00 0.00 0.00 79 1015.5
20260506093304 71 101 3.0 6.0 0.00 0.00 0.00 78 1015.3
20260506092805 71 103 3.0 6.0 0.00 0.00 0.00 78 1015.2
20260506092306 71 120 4.0 10.0 0.00 0.00 0.00 78 1015.1
20260506091804 71 113 5.0 8.0 0.00 0.00 0.00 78 1015.0
20260506091304 71 85 4.0 8.0 0.00 0.00 0.00 78 1015.0
20260506090805 72 84 3.0 5.0 0.00 0.00 0.00 78 1014.9
20260506090304 72 89 2.0 5.0 0.00 0.00 0.00 78 1014.8
20260506085805 72 90 2.0 3.0 0.00 0.00 0.00 77 1014.7
20260506085306 72 87 2.0 3.0 0.00 0.00 0.00 77 1014.7
20260506084805 72 88 2.0 5.0 0.00 0.00 0.00 77 1014.7
20260506084305 72 88 2.0 5.0 0.00 0.00 0.00 78 1014.6
20260506082804 73 24 1.0 2.0 0.00 0.00 0.00 76 1014.4
20260506082305 74 24 1.0 2.0 0.00 0.00 0.00 76 1014.3
20260506081806 74 24 1.0 2.0 0.00 0.00 0.00 76 1014.3
20260506081304 74 24 1.0 2.0 0.00 0.00 0.00 76 1014.2
20260506080804 74 24 1.0 2.0 0.00 0.00 0.00 76 1014.2
20260506080305 75 24 1.0 3.0 0.00 0.00 0.00 75 1014.2
20260506073304 77 3 0.0 0.0 0.00 0.00 0.00 72 1013.8
20260506072804 77 3 0.0 0.0 0.00 0.00 0.00 72 1013.7
20260506072306 77 3 1.0 5.0 0.00 0.00 0.00 72 1013.5
20260506071804 77 26 5.0 5.0 0.00 0.00 0.00 72 1013.4
20260506071305 77 26 5.0 7.0 0.00 0.00 0.00 72 1013.4
20260506070805 77 54 4.0 6.0 0.00 0.00 0.00 72 1013.3
20260506070304 80 3 0.0 0.0 0.00 0.00 0.00 68 1013.3
20260506062305 80 38 3.0 6.0 0.00 0.00 0.00 68 1012.9
20260506061806 80 29 4.0 8.0 0.00 0.00 0.00 68 1012.9
20260506061306 80 58 5.0 9.0 0.00 0.00 0.00 68 1012.8
20260506060804 80 63 5.0 10.0 0.00 0.00 0.00 68 1012.7
20260506051304 79 47 5.0 8.0 0.00 0.00 0.00 68 1012.8
20260506050305 78 44 3.0 7.0 0.00 0.00 0.00 68 1012.8
20260506044804 79 60 3.0 5.0 0.00 0.00 0.00 67 1013.0
20260506044305 79 62 4.0 6.0 0.00 0.00 0.00 67 1013.0
20260506043805 79 77 1.0 8.0 0.00 0.00 0.00 63 1013.0
20260506043304 79 2 0.0 0.0 0.00 0.00 0.00 63 1013.0
20260506042804 79 5 1.0 3.0 0.00 0.00 0.00 63 1013.0
20260506042305 79 90 3.0 3.0 0.00 0.00 0.00 63 1013.0
20260506041804 79 90 4.0 7.0 0.00 0.00 0.00 63 1013.0
20260506041305 79 3 0.0 0.0 0.00 0.00 0.00 63 1013.1
20260506040805 79 3 0.0 0.0 0.00 0.00 0.00 63 1013.0
20260506040305 79 3 0.0 0.0 0.00 0.00 0.00 63 1013.0
20260506035804 79 3 0.0 0.0 0.00 0.00 0.00 63 1013.0
20260506035306 79 3 0.0 0.0 0.00 0.00 0.00 63 1013.1
20260506034804 79 3 0.0 0.0 0.00 0.00 0.00 63 1013.0
20260506034304 79 5 0.0 1.0 0.00 0.00 0.00 63 1013.0
20260506033804 79 88 1.0 1.0 0.00 0.00 0.00 63 1013.0
20260506033305 79 88 1.0 3.0 0.00 0.00 0.00 63 1013.1
20260506032804 79 88 3.0 5.0 0.00 0.00 0.00 64 1013.2
20260506031804 79 76 2.0 9.0 0.00 0.00 0.00 63 1013.4
20260506031304 80 78 5.0 10.0 0.00 0.00 0.00 63 1013.4
20260506030804 80 112 6.0 8.0 0.00 0.00 0.00 63 1013.4
20260506030306 81 96 6.0 6.0 0.00 0.00 0.00 61 1013.4
20260506025306 81 124 1.0 5.0 0.00 0.00 0.00 61 1013.5
20260506024804 80 138 3.0 7.0 0.00 0.00 0.00 61 1013.7
20260506023805 80 135 6.0 9.0 0.00 0.00 0.00 61 1013.9
20260506023305 81 115 8.0 15.0 0.00 0.00 0.00 63 1013.9
20260506022804 80 60 3.0 9.0 0.00 0.00 0.00 63 1013.9
20260506022306 80 96 5.0 9.0 0.00 0.00 0.00 63 1014.0
20260506021304 80 3 0.0 8.0 0.00 0.00 0.00 62 1014.3
20260506020805 80 92 8.0 8.0 0.00 0.00 0.00 62 1014.3
20260506020304 80 92 8.0 9.0 0.00 0.00 0.00 62 1014.4
20260506015804 80 82 3.0 9.0 0.00 0.00 0.00 61 1014.4
20260506015306 80 96 7.0 12.0 0.00 0.00 0.00 61 1014.6
20260506014805 80 132 4.0 8.0 0.00 0.00 0.00 61 1014.6
20260506014305 81 115 7.0 8.0 0.00 0.00 0.00 61 1014.7
20260506013804 81 106 6.0 7.0 0.00 0.00 0.00 61 1014.9
20260506013306 81 130 4.0 6.0 0.00 0.00 0.00 61 1015.0
20260506012804 81 151 3.0 9.0 0.00 0.00 0.00 61 1015.1
20260506012307 80 74 4.0 6.0 0.00 0.00 0.00 63 1015.1
20260506011304 80 63 3.0 9.0 0.00 0.00 0.00 63 1015.3
20260506010805 80 32 1.0 8.0 0.00 0.00 0.00 63 1015.3
20260506010305 79 90 4.0 10.0 0.00 0.00 0.00 63 1015.4
20260506005805 79 79 6.0 12.0 0.00 0.00 0.00 63 1015.5
20260506004805 79 80 3.0 10.0 0.00 0.00 0.00 64 1015.8
20260506004304 79 82 9.0 12.0 0.00 0.00 0.00 65 1015.8
20260506003306 78 47 5.0 9.0 0.00 0.00 0.00 66 1015.8
20260506002805 78 129 3.0 9.0 0.00 0.00 0.00 67 1015.8
20260506002306 78 91 7.0 12.0 0.00 0.00 0.00 67 1015.9
20260506001805 78 36 3.0 9.0 0.00 0.00 0.00 69 1016.0
20260506001304 77 71 2.0 9.0 0.00 0.00 0.00 68 1016.0
20260506000805 77 70 5.0 10.0 0.00 0.00 0.00 69 1016.1
20260506000305 77 58 5.0 9.0 0.00 0.00 0.00 69 1016.2
20260505235804 77 47 2.0 5.0 0.00 0.00 0.00 70 1016.2
20260505235305 76 3 0.0 0.0 0.00 0.00 0.00 70 1016.2
20260505234304 76 3 0.0 1.0 0.00 0.00 0.00 70 1016.2
20260505233804 76 61 1.0 1.0 0.00 0.00 0.00 70 1016.2
20260505233304 76 61 1.0 3.0 0.00 0.00 0.00 70 1016.0
20260505232805 75 63 3.0 3.0 0.00 0.00 0.00 70 1016.0
20260505232305 75 64 2.0 5.0 0.00 0.00 0.00 70 1016.0
20260505231805 75 66 2.0 5.0 0.00 0.00 0.00 71 1016.0
20260505231304 74 63 3.0 5.0 0.00 0.00 0.00 71 1016.0
20260505230818 74 61 2.0 3.0 0.00 0.00 0.00 71 1016.0
20260505230304 74 63 1.0 2.0 0.00 0.00 0.00 73 1016.0
20260505225804 72 3 0.0 0.0 0.00 0.00 0.00 76 1015.9
20260505225306 72 3 0.0 0.0 0.00 0.00 0.00 76 1015.9
20260505224305 72 92 2.0 2.0 0.00 0.00 0.00 76 1015.9
20260505223805 72 92 2.0 3.0 0.00 0.00 0.00 76 1015.9
20260505223304 72 93 4.0 6.0 0.00 0.00 0.00 76 1015.8
20260505222804 71 89 3.0 7.0 0.00 0.00 0.00 77 1015.8
20260505222306 71 85 5.0 8.0 0.00 0.00 0.00 77 1015.8
20260505221305 70 107 4.0 7.0 0.00 0.00 0.00 78 1015.7
20260505220805 70 106 4.0 8.0 0.00 0.00 0.00 78 1015.7
20260505220304 70 105 5.0 8.0 0.00 0.00 0.00 80 1015.7
20260505215305 67 17 1.0 6.0 0.00 0.00 0.00 80 1015.6
20260505214804 67 144 6.0 6.0 0.00 0.00 0.00 80 1015.6
20260505214305 67 144 6.0 7.0 0.00 0.00 0.00 80 1015.6
20260505213805 67 113 5.0 9.0 0.00 0.00 0.00 81 1015.5
20260505212804 66 93 3.0 9.0 0.00 0.00 0.00 82 1015.4
20260505212305 65 124 5.0 8.0 0.00 0.00 0.00 83 1015.4
20260505211805 65 108 4.0 7.0 0.00 0.00 0.00 83 1015.3
20260505211304 64 135 3.0 9.0 0.00 0.00 0.00 83 1015.3
20260505210804 64 122 4.0 7.0 0.00 0.00 0.00 83 1015.1
20260505210305 63 112 3.0 6.0 0.00 0.00 0.00 83 1015.1
20260505205804 63 117 3.0 6.0 0.00 0.00 0.00 83 1015.1
20260505204805 63 121 2.0 5.0 0.00 0.00 0.00 82 1014.9
20260505204304 63 112 2.0 7.0 0.00 0.00 0.00 82 1014.9
20260505203805 63 113 3.0 7.0 0.00 0.00 0.00 82 1014.9
20260505202805 63 102 3.0 8.0 0.00 0.00 0.00 82 1014.8
20260505202307 63 117 3.0 7.0 0.00 0.00 0.00 82 1014.8
20260505201804 63 113 5.0 8.0 0.00 0.00 0.00 82 1014.8
20260505201305 63 107 5.0 9.0 0.00 0.00 0.00 81 1014.8
20260505200305 63 118 5.0 9.0 0.00 0.00 0.00 81 1014.8
20260505195805 63 104 4.0 8.0 0.00 0.00 0.00 81 1014.9
20260505195305 63 115 3.0 12.0 0.00 0.00 0.00 81 1014.8
20260505194806 63 99 3.0 10.0 0.00 0.00 0.00 81 1014.8
20260505194304 63 137 6.0 13.0 0.00 0.00 0.00 81 1014.7
20260505193804 63 121 4.0 9.0 0.00 0.00 0.00 81 1014.7
20260505193304 63 136 6.0 12.0 0.00 0.00 0.00 80 1014.6
20260505192805 63 141 6.0 9.0 0.00 0.00 0.00 80 1014.7
20260505192306 63 160 5.0 10.0 0.00 0.00 0.00 80 1014.6
20260505191805 63 150 6.0 13.0 0.00 0.00 0.00 79 1014.6
20260505190806 63 144 5.0 9.0 0.00 0.00 0.00 80 1014.5
20260505190304 63 142 6.0 12.0 0.00 0.00 0.00 80 1014.5
20260505185805 62 150 6.0 9.0 0.00 0.00 0.00 79 1014.4
20260505185305 62 138 4.0 10.0 0.00 0.00 0.00 79 1014.4
20260505184804 62 139 5.0 9.0 0.00 0.00 0.00 79 1014.4
20260505183804 62 141 3.0 7.0 0.00 0.00 0.00 79 1014.3
20260505182804 62 133 2.0 7.0 0.00 0.00 0.00 78 1014.3
20260505181806 62 138 3.0 5.0 0.00 0.00 0.00 78 1014.3
20260505181304 62 146 3.0 7.0 0.00 0.00 0.00 78 1014.3
20260505180305 62 153 3.0 8.0 0.00 0.00 0.00 77 1014.2
20260505175804 62 156 3.0 6.0 0.00 0.00 0.00 77 1014.2
20260505175305 62 144 2.0 6.0 0.00 0.00 0.00 77 1014.2
20260505174805 62 153 3.0 5.0 0.00 0.00 0.00 77 1014.2
20260505174305 62 150 3.0 6.0 0.00 0.00 0.00 76 1014.2
20260505173805 62 159 3.0 6.0 0.00 0.00 0.00 76 1014.2
20260505173304 62 161 5.0 7.0 0.00 0.00 0.00 76 1014.2
20260505172806 62 155 3.0 7.0 0.00 0.00 0.00 75 1014.1
20260505172306 63 153 2.0 5.0 0.00 0.00 0.00 75 1014.1
20260505171805 63 153 3.0 6.0 0.00 0.00 0.00 75 1014.2
20260505171304 63 157 3.0 8.0 0.00 0.00 0.00 74 1014.1
20260505170806 63 160 5.0 7.0 0.00 0.00 0.00 74 1014.1
20260505170306 63 158 4.0 9.0 0.00 0.00 0.00 74 1014.2
20260505165306 63 138 3.0 7.0 0.00 0.00 0.00 74 1014.3
20260505164804 63 150 3.0 7.0 0.00 0.00 0.00 73 1014.3
20260505163805 63 121 1.0 3.0 0.00 0.00 0.00 73 1014.5
20260505163306 63 121 1.0 3.0 0.00 0.00 0.00 73 1014.6
20260505162804 63 121 1.0 3.0 0.00 0.00 0.00 74 1014.7
20260505161805 63 117 3.0 7.0 0.00 0.00 0.00 75 1014.7
20260505161304 63 125 3.0 9.0 0.00 0.00 0.00 75 1014.9
20260505160804 62 147 3.0 7.0 0.00 0.00 0.00 76 1014.9
20260505160304 62 159 5.0 6.0 0.00 0.00 0.00 76 1014.9
20260505153306 63 159 2.0 3.0 0.00 0.00 0.00 76 1015.0
20260505152305 63 159 2.0 3.0 0.00 0.00 0.00 75 1015.1
20260505151806 63 159 1.0 2.0 0.00 0.00 0.00 75 1015.1
20260505151304 63 159 2.0 2.0 0.00 0.00 0.00 75 1015.1
20260505150805 63 159 2.0 5.0 0.00 0.00 0.00 75 1015.2
20260505140304 64 170 5.0 9.0 0.00 0.01 0.00 75 1015.9
20260505130306 65 148 3.0 7.0 0.00 0.01 0.00 77 1016.5
20260505124804 65 110 3.0 7.0 0.00 0.01 0.00 78 1016.5
20260505124304 65 119 2.0 3.0 0.00 0.01 0.00 78 1016.5
20260505123804 65 123 1.0 7.0 0.00 0.01 0.00 79 1016.5
20260505123305 65 121 2.0 3.0 0.00 0.01 0.00 79 1016.5
20260505122804 65 120 2.0 3.0 0.00 0.01 0.00 79 1016.4
20260505122305 65 121 2.0 5.0 0.00 0.01 0.00 80 1016.4
20260505121805 65 123 5.0 8.0 0.00 0.01 0.00 80 1016.4